Marion, IL

6:32 PM CST on December 08, 2016 (GMT -0600)
Williamson County Regional

Weather History for KMWA - August, 2014

Change the Weather History Date:

Saturday, August 9, 2014

  Actual Average Record
Temperature  
Mean Temperature 78 °F -  
Max Temperature 82 °F 87 °F 100 °F (1980)
Min Temperature 73 °F 64 °F 50 °F (1989)
Cooling Degree Days 12    
Growing Degree Days 28 (Base 50)    
Moisture  
Dew Point 72 °F    
Average Humidity 91    
Maximum Humidity 100    
Minimum Humidity 74    
Precipitation  
Precipitation 0.31 in - - ()
Sea Level Pressure  
Sea Level Pressure 29.96 in    
Wind  
Wind Speed 3 mph (North)    
Max Wind Speed 12 mph    
Max Gust Speed -    
Visibility 6 miles    
Events Rain    
Averages and records for this station are not official NWS values.
T = Trace of Precipitation, MM = Missing Value Source: NWS Daily Summary

Daily Weather History Graph

Daily Weather History Graph

Search for Another Location

Airport or City:

Trip Planner

Search our weather history database for the weather conditions in past years. The results will help you decide how hot, cold, wet, or windy it might be!

Date:

Astronomy

Aug. 09, 2014 Rise Set
Actual Time 6:06 AM CDT 7:56 PM CDT
Civil Twilight 5:38 AM CDT 8:24 PM CDT
Nautical Twilight 5:03 AM CDT 8:58 PM CDT
Astronomical Twilight 4:26 AM CDT 9:35 PM CDT
Moon 6:57 PM CDT 4:47 AM CDT
Length of Visible Light 14h 46m
Length of Day
13h 49m
Waxing Gibbous, 98% of the Moon is Illuminated
Aug 9
Waxing Gibbous
Aug 10
Full
Aug 17
Last Quarter
Aug 25
New
Sep 2
First Quarter

Hourly Weather History & Observations

Time (CDT) Temp. Heat Index Dew Point Humidity Pressure Visibility Wind Dir Wind Speed Gust Speed Precip Events Conditions
12:15 AM 75.2 °F - 73.4 °F 94% 29.94 in 5.0 mi ENE 5.8 mph - N/A   Overcast
12:35 AM 75.2 °F - 73.4 °F 94% 29.94 in 5.0 mi East 3.5 mph - N/A   Overcast
12:55 AM 75.2 °F - 73.4 °F 94% 29.94 in 4.0 mi NE 4.6 mph - N/A   Overcast
1:15 AM 75.2 °F - 73.4 °F 94% 29.95 in 3.0 mi Calm Calm - N/A Rain Light Rain
1:35 AM 75.2 °F - 73.4 °F 94% 29.95 in 1.2 mi Calm Calm - 0.20 in Rain Heavy Rain
1:55 AM 73.4 °F - 73.4 °F 100% 29.94 in 4.0 mi East 3.5 mph - 0.30 in Rain Light Rain
2:15 AM 75.2 °F - 73.4 °F 94% 29.94 in 3.0 mi Calm Calm - N/A   Drizzle
2:35 AM 73.4 °F - 73.4 °F 100% 29.93 in 3.0 mi Calm Calm - 0.01 in Rain Rain
2:55 AM 73.4 °F - 73.4 °F 100% 29.93 in 5.0 mi Calm Calm - 0.01 in   Overcast
3:15 AM 73.4 °F - 71.6 °F 94% 29.93 in 5.0 mi Calm Calm - N/A   Overcast
3:35 AM 73.4 °F - 71.6 °F 94% 29.94 in 3.0 mi Calm Calm - N/A   Overcast
3:55 AM 73.4 °F - 71.6 °F 94% 29.94 in 5.0 mi Calm Calm - N/A   Mostly Cloudy
4:15 AM 73.4 °F - 71.6 °F 94% 29.93 in 4.0 mi Calm Calm - N/A   Overcast
4:35 AM 73.4 °F - 71.6 °F 94% 29.94 in 5.0 mi Calm Calm - N/A   Overcast
4:55 AM 73.4 °F - 71.6 °F 94% 29.94 in 4.0 mi Calm Calm - N/A   Overcast
5:15 AM 73.4 °F - 71.6 °F 94% 29.94 in 3.0 mi Calm Calm - N/A   Overcast
5:35 AM 73.4 °F - 71.6 °F 94% 29.95 in 3.0 mi Calm Calm - N/A   Overcast
5:55 AM 73.4 °F - 71.6 °F 94% 29.95 in 3.0 mi Calm Calm - N/A   Overcast
6:15 AM 73.4 °F - 71.6 °F 94% 29.95 in 2.5 mi Calm Calm - N/A   Overcast
6:45 AM 73.4 °F - 71.6 °F 94% 29.96 in 2.0 mi NNW 3.5 mph - N/A   Overcast
7:45 AM 73.4 °F - 71.6 °F 94% 29.98 in 2.8 mi North 3.5 mph - N/A   Overcast
8:45 AM 75.2 °F - 73.4 °F 94% 29.99 in 3.0 mi North 4.6 mph - N/A   Overcast
9:45 AM 75.2 °F - 71.6 °F 89% 30.00 in 5.0 mi North 4.6 mph - N/A   Overcast
10:45 AM 75.2 °F - 71.6 °F 89% 30.01 in 10.0 mi WSW 4.6 mph - N/A   Overcast
11:45 AM 77.0 °F - 71.6 °F 83% 30.01 in 10.0 mi West 4.6 mph - N/A   Overcast
12:45 PM 80.6 °F 84.6 °F 71.6 °F 74% 30.00 in 10.0 mi West 5.8 mph - N/A   Mostly Cloudy
1:45 PM 82.4 °F 88.2 °F 73.4 °F 74% 29.98 in 10.0 mi NW 5.8 mph - N/A   Mostly Cloudy
2:45 PM - - - N/A% 29.97 in 20.0 mi WNW 8.1 mph - N/A   Mostly Cloudy
3:55 PM - - - N/A% 29.95 in 20.0 mi North 11.5 mph - N/A   Mostly Cloudy
4:55 PM - - - N/A% 29.96 in 20.0 mi North 11.5 mph - N/A   Mostly Cloudy
5:47 PM - - - N/A% 29.98 in 20.0 mi NNE 9.2 mph - N/A   Mostly Cloudy
6:35 PM 78.8 °F - 73.4 °F 83% 29.98 in 7.0 mi North 6.9 mph - N/A   Mostly Cloudy
6:55 PM 78.8 °F - 73.4 °F 83% 29.98 in 7.0 mi North 5.8 mph - N/A   Overcast
7:15 PM 78.8 °F - 73.4 °F 83% 29.98 in 7.0 mi NNW 5.8 mph - N/A   Overcast
7:35 PM 78.8 °F - 71.6 °F 78% 29.97 in 7.0 mi North 4.6 mph - N/A   Overcast
7:55 PM 77.0 °F - 71.6 °F 83% 29.97 in 7.0 mi NNE 4.6 mph - N/A   Overcast
8:15 PM 77.0 °F - 71.6 °F 83% 29.96 in 7.0 mi Calm Calm - N/A   Mostly Cloudy
8:35 PM 75.2 °F - 71.6 °F 89% 29.96 in 7.0 mi North 3.5 mph - N/A   Clear
8:55 PM 75.2 °F - 71.6 °F 89% 29.96 in 7.0 mi Calm Calm - N/A   Mostly Cloudy
9:15 PM 75.2 °F - 71.6 °F 89% 29.98 in 5.0 mi Calm Calm - N/A   Overcast
9:35 PM 75.2 °F - 73.4 °F 94% 29.99 in 5.0 mi Calm Calm - N/A   Overcast
9:55 PM 75.2 °F - 71.6 °F 89% 30.00 in 5.0 mi Calm Calm - N/A   Overcast
10:15 PM 75.2 °F - 71.6 °F 89% 30.00 in 5.0 mi NE 4.6 mph - N/A   Overcast
10:35 PM 75.2 °F - 71.6 °F 89% 29.99 in 5.0 mi NE 3.5 mph - N/A   Overcast
11:15 PM 73.4 °F - 71.6 °F 94% 29.98 in 3.0 mi NNE 3.5 mph - N/A   Mostly Cloudy
11:35 PM 73.4 °F - 71.6 °F 94% 29.99 in 3.0 mi North 4.6 mph - N/A   Overcast
11:55 PM 73.4 °F - 71.6 °F 94% 29.98 in 3.0 mi NNE 4.6 mph - N/A   Overcast